Terug naar catalogus

SCOUT B R/B

ActiefPO
NORAD 3341·ROCKET BODY·🇺🇸 United States

Gelanceerd Aug 8, 1968 vanaf Vandenberg Space Force Base

Loading…

Volgende Passages (komende 24 uur)

TLE

VersSource: Space-Track

Epoch: Sep 14, 2026, 04:39 UTC

1 03341U 68066C   26257.19387261  .00000037  00000-0  28739-4 0  9999
2 03341  80.6677 343.6921 1115085  22.3375 342.2564 12.26196726574428

Volg SCOUT B R/B in realtime met AllMySat

Download on the App Store